COSMOS 1745

导读

COSMOS 1745是苏联于1986年5月23日发射的卫星,归属“宇宙”(COSMOS)卫星系列。该系列是苏联规模庞大的卫星家族,涵盖军事、科学等多种用途,统一命名方式可隐藏卫星真实任务属性。作为冷战时期航天活动产物,它和多数同系列卫星一样已完成使命,目前已退役,成为太空漂浮的人造天体,见证了苏联航天发展历程。

基本信息
目录编号:
16727
目录名称:
COSMOS 1745
国际标识:
1986-037A
轨道中心:
EARTH
卫星名称:
COSMOS 1745
卫星全名:
--
卫星状态:
在轨 (已飞行14630 天)
发射日期:
1986-05-23 UTC
国别 :
俄罗斯(独联体) (CIS)
星等 :
--
轨道信息
数据来源 国际轨道数据 AOE轨道数据
星历时间 2026-06-12T14:37:11+0800
13小时前
查看轨道信息
2026-06-11T06:00:00+0800
1天前
查看轨道信息
半长轴 7361.875km 7361.876km
偏心率 0.0030398 0.0030383
轨道倾角 82.958° 82.957°
近地点辐角 216.011° 219.855°
升交点赤经 109.115° 110.119°
平近点角 260.938° 15.891°
近地点 961.359km 961.371km
远地点 1006.117km 1006.107km
周期 104.771分钟 104.771分钟
每日圈数 13.744221 13.744218
详细信息
使用方式:
暂无
2D轨道图
3D轨道图
轨道高度分析图
轨道倾角分析图
轨道综合分析图
查看轨道综合分析图